Regional Weather Roundup
Issued by NWS

Home | Current Version | Previous Version | Text Only | Print | Product List | Glossary On
Versions: 1 2 3 4 5 6 7 8 9 10 11 12 13 14 15 16 17 18 19 20 21 22 23 24 25 26 27 28 29 30 31 32 33 34 35 36 37 38 39 40 41 42 43 44 45 46 47 48 49 50
295
ASUS46 KSTO 200215
RWRCA

NORTHERN AND CENTRAL CA REGIONAL WEATHER ROUNDUP
NATIONAL WEATHER SERVICE SACRAMENTO CA
700 PM PDT THU OCT 19 2017

NOTE: FAIR INDICATES FEW OR NO CLOUDS BELOW 12,000 FEET WITH NO
SIGNIFICANT WEATHER AND/OR OBSTRUCTIONS TO VISIBILITY.

CAZ001-003-200300-
NORTHWEST AREA

CITY           SKY/WX    TMP DP  RH WIND       PRES   REMARKS
CRESCENT CITY  RAIN      50  50 100 E7        29.79R FOG
UKIAH          CLOUDY    57  55  93 S8        29.82F
$$

CAZ006-505>513-200300-
BAY AREA

CITY           SKY/WX    TMP DP  RH WIND       PRES   REMARKS
SANTA ROSA     CLOUDY    57  57 100 S7        29.86F FOG
SAN RAFAEL     N/A       59  MM  MM MISG
NAPA           LGT RAIN  59  56  89 SW15      29.88S
CONCORD        CLOUDY    64  55  72 SW12      29.89S
OAKLAND CITY   N/A      MM  MM  MM MISG
OAKLAND        MOCLDY    61  57  87 SW13      29.91S
SAN FRAN CITY  N/A       60  MM  86 MISG
SAN FRAN ARPT  MOCLDY    62  55  77 S13       29.90S
LIVERMORE      MOCLDY    62  53  72 SW12      29.90R
HAYWARD        CLOUDY    62  54  74 SW6       29.90F
REDWOOD CITY   N/A       62  MM  78 MISG
MOFFETT ARPT   CLOUDY    65  54  67 W7        29.91R
SAN JOSE ARPT  MOCLDY    66  54  65 N6        29.90F
$$
CAZ034-037-514>518-200300-
CENTRAL COAST

CITY           SKY/WX    TMP DP  RH WIND       PRES   REMARKS
WATSONVILLE    CLOUDY    57  55  93 S6        29.95R
SALINAS        MOCLDY    61  54  77 W7        29.95R
MONTEREY       CLOUDY    61  54  77 VRB3      29.95S
SAN LUIS OBISP PTCLDY    59  53  80 NW10      29.95R
SANTA MARIA    PTCLDY    59  55  87 NW14      29.95S
$$
CAZ015-016-200300-
NORTHERN SACRAMENTO VALLEY

CITY           SKY/WX    TMP DP  RH WIND       PRES   REMARKS
REDDING        MOCLDY    68  52  56 VRB7      29.67F
RED BLUFF      MOCLDY    69  52  54 SE23G29   29.68F
OROVILLE       PTCLDY    66  53  63 SE21G30   29.80S
$$
CAZ016>018-200300-
SOUTHERN SACRAMENTO VALLEY

CITY           SKY/WX    TMP DP  RH WIND       PRES   REMARKS
AUBURN         CLOUDY    57  52  82 S9        29.89R
BEALE AFB      MOCLDY    64  53  66 S15       29.82R
LINCOLN        FAIR      63  50  63 S10       29.84S
MARYSVILLE     MOCLDY    65  52  62 SW13      29.84R
SAC INTL ARPT  MOCLDY    63  54  72 SW16      29.85R
MATHER AIRPORT MOCLDY    63  54  72 SW15      29.87R
DOWNTOWN SAC   N/A       62  MM  MM MISG
SAC EXEC ARPT  CLOUDY    61  55  81 SW13G18   29.87R
VACAVILLE      PTCLDY    61  56  83 SW14      29.88S
TRAVIS AFB     PTCLDY    60  54  80 W13       29.86R
$$
CAZ019>021-200300-
SAN JOAQUIN VALLEY

CITY           SKY/WX    TMP DP  RH WIND       PRES   REMARKS
STOCKTON       MOCLDY    65  53  65 W15       29.88R
MODESTO        PTCLDY    66  52  60 NW12      29.86R
MERCED         CLEAR     66  51  58 NW9       29.85R
LEMOORE        PTCLDY    67  35  30 N8        29.84R
FRESNO         PTCLDY    74  40  29 W5        29.84R
HANFORD        CLEAR     68  44  42 NW3       29.84S
PORTERVILLE    CLEAR     71  41  33 CALM      29.84F
BAKERSFIELD    CLEAR     74  36  25 N6        29.83F
$$
CAZ011-012-071-200300-
NORTHERN MOUNTAINS

CITY           SKY/WX    TMP DP  RH WIND       PRES   REMARKS
YREKA          LGT RAIN  55  48  77 SW8       29.65S
MOUNT SHASTA   LGT RAIN  48  43  82 E8        29.71F
ALTURAS        CLOUDY    54  39  57 S12       29.71F
$$
CAZ011-012-071-200300-
SIERRA NEVADA MTNS

CITY           SKY/WX    TMP DP  RH WIND       PRES   REMARKS
BLUE CANYON    FOG       46  46 100 S12       29.93R VSB 1/4
TRUCKEE        PTCLDY    52  36  54 S15G31    29.88F
TAHOE VLY ARPT CLOUDY    52  36  54 S16G25    29.90F
MAMMOTH LAKES  FAIR      53  22  29 W8        30.00F
$$




USA.gov is the U.S. government's official web portal to all federal, state and local government web resources and services.